{"data":{"norad_id":67036,"epoch":"2026-05-24T21:22:03.877824Z","epoch_age_seconds":80531,"freshness":"FRESH","line1":"1 67036U 25294G   26144.89032266  .00014347  00000+0  52993-3 0  9996","line2":"2 67036  43.0026 327.6894 0001326 270.0242  90.0457 15.27574828 26458","mean_motion":15.27574828,"eccentricity":0.0001326,"inclination_deg":43.0026,"raan_deg":327.6894,"arg_perigee_deg":270.0242,"mean_anomaly_deg":90.0457,"bstar":0.00052993,"rev_number":2645,"period_min":94.267067878131,"perigee_km":482.15478758207,"apogee_km":483.97437824186,"semimajor_km":6861.201582912,"source":"CELESTRAK","updated_at":"2026-05-25T13:38:21.437425Z"}}